User: anonymous   Login
Location: Unspecified
(0.0000°N, 0.0000°E)
Time: 23:58:08
(UTC+00:00)
Language:

TBA - TO BE ASSIGNED - Orbit

View from above orbital plane
View from above orbital plane
View from above satellite
View from above satellite

Ground track
Ground track

The orbit is defined by the following mean orbital elements,

1 68648U          26145.23825204 +.00000000 +00000-0 +43970-4 0 00006
2 68648  88.9877 323.3553 0010408  68.1945 292.0319 13.62731253    00
Epoch (UTC): 25 May 2026 05:43:04
Eccentricity: 0.0010408
inclination: 88.9877°
perigee height: 1018 km
apogee height: 1033 km
right ascension of ascending node: 323.3553°
argument of perigee: 68.1945°
revolutions per day: 13.62731253
mean anomaly at epoch: 292.0319°

The dashed part of the orbit path shows where the satellite is in the earth's shadow,  

DLR